Location: Unspecified
(0.0000°N, 0.0000°E)
Time: 08:54:21
(UTC+00:00)

deb Delta 104 - Pass Details

Date: 15 March 2026
Orbit: 1430 x 1579 km, 102.3° (Epoch: 19 April)

Event Time Altitude Azimuth Distance (km) Brightness Sun altitude
Rises 18:25:58 0° 195° (SSW) 4,514 ? -4.3°
Reaches altitude 10° 18:29:47 10° 212° (SSW) 3,538 ? -5.2°
Maximum altitude 18:35:01 19° 252° (WSW) 2,925 ? -6.5°
Drops below altitude 10° 18:40:18 10° 293° (WNW) 3,567 ? -7.9°
Sets 18:44:14 0° 310° (NW) 4,565 ? -8.8°
